Flag for U.S.A. Weather past 2 weeks in Shreveport, Louisiana, U.S.A.

Now
75 °F

Passing clouds.


Feels Like: 73 °F
Forecast: 76 / 92 °F
Wind: 6 mph from South

Location: Shreveport Regional Airport

Current Time: Jul 6, 2015 at 6:42:25 AM

Latest Report: Jul 6, 2015 at 5:56 AM


Visibility: 8 mi

Pressure: 30.05 "Hg

Humidity: 94%

Dew point: 73 °F

Location of ShreveportLocation

Historic Weather in Shreveport — Graph

°F

Shreveport temperature yesterday

Maximum temperature yesterday: 91 °F (at 3:56 PM)
Minimum temperature yesterday: 73 °F (at 7:56 PM)
Average temperature yesterday: 80 °F

Past Weeks' High & Low Weather Summary

 TemperatureHumidityPressure
High95 °F (Jun 24, 1:56 PM)96% (Jun 29, 6:56 PM)30.16 "Hg (Jun 29, 6:56 PM)
Low70 °F (Jul 4, 4:56 PM)41% (Jun 28, 3:56 PM)29.88 "Hg (Jun 26, 6:56 PM)
Average82 °F75%30.01 "Hg
* Reported Jun 21 4:56 AM — Jul 6 4:56 AM, Shreveport, Weather by CustomWeather, © 2015

Note: Actual official high and low records may vary slightly from our data, if they occured in-between our weather recording intervals... More about our weather records

Advertising

Shreveport weather history for previous 24 hours

 ConditionsComfort  
Time TempWeatherWind HumidityBarometerVisibility
4:56 AM
Mon, Jul 6
75 °FPassing clouds.6 mph94%30.03 "Hg9 mi
3:56 AM76 °FPassing clouds.7 mph91%30.01 "Hg10 mi
2:56 AM75 °FPassing clouds.8 mph90%30.01 "Hg10 mi
1:56 AM74 °FPassing clouds.8 mph91%30.00 "Hg10 mi
12:56 AM74 °FPassing clouds.9 mph88%30.01 "Hg10 mi
11:56 PM
Sun, Jul 5
74 °FPassing clouds.9 mph88%30.01 "Hg10 mi
10:56 PM74 °FPartly cloudy.10 mph88%30.02 "Hg10 mi
9:56 PM73 °FMostly cloudy.9 mph90%30.03 "Hg10 mi
8:56 PM74 °FCloudy.10 mph91%30.04 "Hg10 mi
7:56 PM73 °FThunderstorms. Cloudy.15 mph88%30.05 "Hg7 mi
6:56 PM80 °FThunderstorms. Mostly cloudy.20 mph71%30.00 "Hg10 mi
5:56 PM91 °FCloudy.7 mph60%29.97 "Hg10 mi
4:56 PM91 °FPartly sunny.7 mph60%29.96 "Hg10 mi
3:56 PM91 °FScattered clouds.9 mph57%29.98 "Hg10 mi
2:56 PM89 °FScattered clouds.7 mph59%30.01 "Hg10 mi
2:03 PM87 °FBroken clouds.10 mph61%30.05 "Hg10 mi
1:56 PM87 °FThunderstorms. Broken clouds.14 mph72%30.04 "Hg10 mi
12:56 PM89 °FBroken clouds.5 mph61%30.06 "Hg10 mi
11:56 AM87 °FBroken clouds.10 mph67%30.07 "Hg10 mi
10:56 AM86 °FScattered clouds.9 mph70%30.07 "Hg10 mi
9:56 AM83 °FMostly cloudy.8 mph77%30.07 "Hg10 mi
8:56 AM80 °FPartly sunny.7 mph85%30.06 "Hg10 mi
7:56 AM78 °FLow clouds.8 mph87%30.06 "Hg10 mi
6:56 AM77 °FLow clouds.7 mph90%30.04 "Hg10 mi
Weather by CustomWeather, © 2015

See weather overviewHow to use our weather pages